Location: Killam
(52.7910°N, 111.8608°W)
Time: 11:46:00
(UTC+00:00)

ISS - Pass Details

Date: 23 January 2026
Orbit: 413 x 428 km, 51.6° (Epoch: 17 February)

Event Time Altitude Azimuth Distance (km) Brightness Sun altitude
Rises 02:10:52 0° 277° (W) 2,367 1.5 -20.1°
Reaches altitude 10° 02:12:59 10° 273° (W) 1,505 0.2 -20.4°
Enters shadow 02:16:17 59° 196° (SSW) 495 -3.4 -20.9°
